This demonstration page uses our WeatherBlox Daily Observations layout. Learn more.

Left ArrowRight Arrow

Hourly Observations for October 16, 2022

Temp ( °F °C ) Dew Point ( °F °C ) Humidity (%) Winds ( mph kmh ) Pressure ( in mb ) Visibility ( mi km ) Precip ( " mm )
12:53 am 00:53 Clear 38 3.3 28 -2.2 67 67 SSW 5 7 30.35 1028 N/A 0.00 0.00
1:53 am 01:53 Clear 32 0 25 -3.9 75 75 E 6 9 30.36 1028 N/A 0.00 0.00
2:53 am 02:53 Clear 33 0.6 25 -3.9 72 72 E 3 6 30.36 1028 N/A 0.00 0.00
3:53 am 03:53 Clear 31 -0.6 24 -4.4 75 75 SW 6 9 30.36 1028 N/A 0.00 0.00
4:53 am 04:53 Clear 33 0.6 26 -3.3 75 75 Calm 30.36 1028 N/A 0.00 0.00
5:53 am 05:53 Clear 30 -1.1 24 -4.4 78 78 SE 5 7 30.37 1028 N/A 0.00 0.00
6:53 am 06:53 Clear 33 0.6 26 -3.3 75 75 ENE 9 15 30.37 1028 N/A 0.00 0.00
7:53 am 07:53 Sunny 31 -0.6 25 -3.9 78 78 ENE 5 7 30.37 1029 N/A 0.00 0.00
8:53 am 08:53 Sunny 33 0.6 25 -3.9 72 72 Calm 30.39 1029 N/A 0.00 0.00
9:53 am 09:53 Sunny 40 4.4 26 -3.3 57 57 NE 3 6 30.40 1029 N/A 0.00 0.00
10:53 am 10:53 Sunny 45 7.2 27 -2.8 49 49 Calm 30.38 1029 N/A 0.00 0.00
11:53 am 11:53 Sunny 51 10.6 28 -2.2 41 41 Calm 30.35 1028 N/A 0.00 0.00
12:53 pm 12:53 Sunny 57 13.9 28 -2.2 33 33 E 6 9 30.34 1027 N/A 0.00 0.00
1:53 pm 13:53 Sunny 60 15.6 30 -1.1 32 32 VRB 5 7 30.31 1027 N/A 0.00 0.00
2:53 pm 14:53 Sunny 64 17.8 30 -1.1 28 28 E 3 6 30.28 1025 N/A 0.00 0.00
3:53 pm 15:53 Sunny 66 18.9 31 -0.6 27 27 VRB 3 6 30.26 1025 N/A 0.00 0.00
4:53 pm 16:53 Sunny 66 18.9 31 -0.6 27 27 E 5 7 30.25 1024 N/A 0.00 0.00
5:53 pm 17:53 Sunny 63 17.2 31 -0.6 30 30 ENE 5 7 30.24 1024 N/A 0.00 0.00
6:53 pm 18:53 Clear 55 12.8 31 -0.6 40 40 ESE 5 7 30.24 1024 N/A 0.00 0.00
7:53 pm 19:53 Clear 50 10 30 -1.1 46 46 E 6 9 30.25 1024 N/A 0.00 0.00
8:53 pm 20:53 Clear 50 10 30 -1.1 46 46 SE 3 6 30.25 1024 N/A 0.00 0.00
9:53 pm 21:53 Clear 47 8.3 29 -1.7 49 49 ENE 3 6 30.23 1024 N/A 0.00 0.00
10:53 pm 22:53 Clear 42 5.6 28 -2.2 57 57 E 3 6 30.23 1024 N/A 0.00 0.00
11:53 pm 23:53 Clear 40 4.4 28 -2.2 62 62 E 3 6 30.21 1023 N/A 0.00 0.00

Powered by AerisWeather